Weather History for KSBM - October, 2013

Change the Weather History Date:

Tuesday, October 8, 2013

  Actual Average Record
Temperature  
Mean Temperature 53 °F -  
Max Temperature 70 °F 61 °F 86 °F (2007)
Min Temperature 37 °F 45 °F 28 °F (2012)
Degree Days  
Heating Degree Days 12    
Growing Degree Days 3 (Base 50)    
Moisture  
Dew Point 48 °F    
Average Humidity 81    
Maximum Humidity 100    
Minimum Humidity 49    
Precipitation  
Precipitation 0.00 in - - ()
Sea Level Pressure  
Sea Level Pressure 30.14 in    
Wind  
Wind Speed 4 mph (South)    
Max Wind Speed 15 mph    
Max Gust Speed 22 mph    
Visibility 10 miles    
Events      
Averages and records for this station are not official NWS values.
T = Trace of Precipitation, MM = Missing Value Source: NWS Daily Summary

Daily Weather History Graph

Daily Weather History Graph

Search for Another Location

Airport or City:

Trip Planner

Search our weather history database for the weather conditions in past years. The results will help you decide how hot, cold, wet, or windy it might be!

Date:

Astronomy

Oct. 08, 2013 Rise Set
Actual Time 6:57 AM CDT 6:19 PM CDT
Civil Twilight 6:28 AM CDT 6:48 PM CDT
Nautical Twilight 5:55 AM CDT 7:21 PM CDT
Astronomical Twilight 5:22 AM CDT 7:54 PM CDT
Moon 10:58 AM CDT (10/8) 8:48 PM CDT (10/8)
Length of Visible Light 12h 19m
Length of Day
11h 21m
Waxing Crescent, 16% of the Moon is Illuminated
Oct 8
Waxing Crescent
Oct 11
First Quarter
Oct 18
Full
Oct 26
Last Quarter
Nov 3
New

Hourly Weather History & Observations

Time (CDT) Temp. Dew Point Humidity Pressure Visibility Wind Dir Wind Speed Gust Speed Precip Events Conditions
12:53 AM 41.0 °F 41.0 °F 100% 30.10 in 10.0 mi Calm Calm - N/A   Clear
1:53 AM 41.0 °F 41.0 °F 100% 30.10 in 10.0 mi Calm Calm - N/A   Clear
2:53 AM 37.0 °F 37.0 °F 100% 30.11 in 10.0 mi Calm Calm - N/A   Clear
3:53 AM 39.9 °F 39.9 °F 100% 30.12 in 10.0 mi Calm Calm - N/A   Clear
4:53 AM 37.9 °F 37.9 °F 100% 30.14 in 10.0 mi Calm Calm - N/A   Clear
5:53 AM 39.0 °F 39.0 °F 100% 30.14 in 10.0 mi Calm Calm - N/A   Clear
6:53 AM 39.0 °F 39.0 °F 100% 30.16 in 10.0 mi Calm Calm - N/A   Clear
7:53 AM 43.0 °F 42.1 °F 97% 30.17 in 10.0 mi Calm Calm - N/A   Clear
8:53 AM 52.0 °F 48.0 °F 86% 30.17 in 10.0 mi Calm Calm - N/A   Clear
9:53 AM 61.0 °F 51.1 °F 70% 30.17 in 10.0 mi South 9.2 mph - N/A   Clear
10:53 AM 64.9 °F 48.9 °F 56% 30.17 in 10.0 mi South 11.5 mph - N/A   Clear
11:53 AM 66.9 °F 48.9 °F 52% 30.16 in 10.0 mi South 9.2 mph - N/A   Clear
12:53 PM 68.0 °F 48.0 °F 49% 30.15 in 10.0 mi SSE 8.1 mph - N/A   Clear
1:53 PM 69.1 °F 50.0 °F 51% 30.13 in 10.0 mi South 11.5 mph - N/A   Clear
2:53 PM 68.0 °F 50.0 °F 52% 30.13 in 10.0 mi SE 10.4 mph - N/A   Clear
3:53 PM 66.0 °F 53.1 °F 63% 30.12 in 10.0 mi SSE 15.0 mph - N/A   Clear
4:53 PM 64.9 °F 55.0 °F 70% 30.12 in 10.0 mi South 15.0 mph 21.9 mph N/A   Clear
5:53 PM 62.1 °F 55.9 °F 80% 30.12 in 10.0 mi SSE 8.1 mph - N/A   Clear
6:53 PM 60.1 °F 55.9 °F 86% 30.13 in 10.0 mi South 6.9 mph - N/A   Clear
7:53 PM 59.0 °F 55.0 °F 87% 30.13 in 10.0 mi South 10.4 mph - N/A   Clear
8:53 PM 59.0 °F 55.0 °F 87% 30.14 in 10.0 mi South 12.7 mph - N/A   Clear
9:53 PM 57.9 °F 55.0 °F 90% 30.14 in 10.0 mi South 8.1 mph - N/A   Clear
10:53 PM 57.9 °F 54.0 °F 87% 30.14 in 10.0 mi South 8.1 mph - N/A   Clear
11:53 PM 57.0 °F 51.1 °F 81% 30.14 in 10.0 mi SSW 8.1 mph - N/A   Clear